Location: Newark
(43.0000°N, 1.6781°W)
Time: 01:52:35
(UTC+00:00)

DELFI C3 - Visible Passes

Search period start: 10 December 2022 00:00
Search period end: 20 December 2022 00:00
Orbit: 502 x 517 km, 97.3° (Epoch: 09 December)

Date Brightness Start Highest point End Pass type
(mag) Time Alt. Az. Time Alt. Az. Time Alt. Az.
10 Dec?17:44:36NNE17:44:36NNE17:36:15SEvisible
10 Dec ? 19:11:04 10° SSW 19:19:28 - NNW 19:11:08 10° SSW visible
11 Dec ? 06:40:56 10° NE 06:43:44 20° E 06:46:30 10° SE visible
11 Dec ? 18:54:00 10° S 19:02:34 - NNW 18:54:22 12° S visible
12 Dec ? 06:25:05 10° ENE 06:26:49 13° E 06:28:33 10° ESE visible
12 Dec ? 18:37:08 10° SSE 18:45:36 - NNW 18:37:34 13° SSE visible
13 Dec ? 18:20:26 10° SSE 18:28:34 - N 18:20:45 12° SSE visible
14 Dec ? 18:03:53 10° SE 18:11:29 - N 18:03:53 10° SE visible
14 Dec ? 19:46:20 - NNW 19:46:20 - NNW 19:38:46 10° SW visible
15 Dec?17:54:19N17:54:19N17:47:01ESEvisible
15 Dec ? 19:21:06 10° SSW 19:29:12 - NNW 19:21:53 14° SW visible
16 Dec ? 06:50:15 10° NE 06:53:25 26° E 06:56:34 10° SSE visible
16 Dec?17:37:07NNE17:37:07NNE17:30:07ESEvisible
16 Dec ? 19:03:41 10° S 19:11:58 - NNW 19:05:00 20° SSW visible
17 Dec ? 06:33:52 10° NE 06:36:20 17° E 06:38:47 10° SE visible
17 Dec ? 18:46:29 10° S 18:54:41 - NNW 18:48:04 24° S visible
18 Dec ? 06:18:24 10° ENE 06:19:10 10° E 06:19:55 10° ESE visible
18 Dec ? 18:29:27 10° SSE 18:37:20 - N 18:31:09 26° SSE visible
19 Dec ? 18:12:35 10° SE 18:19:54 - N 18:14:13 23° SE visible
19 Dec ? 19:48:29 10° WSW 19:54:44 - NW 19:49:05 12° WSW visible
